ASA328 KPDX-KSEA

Flight info

Callsign ASA328
Flight time 0h 33m
Altitude 16000
Route COUGA KRIEG HAWKZ8
Aircraft B38M/M-SDE1FGHILORVWXY/HB1

Departure

Time 2026-05-08 02:26
Airport Portland International Airport (KPDX)

Arrival

Time 2026-05-08 03:00
Airport Seattle–Tacoma International Airport (KSEA)
Time Latitude Longitude Altitude Speed Heading
2026-05-08 02:04 45.58893 -122.59798 33 ft 0 kts 15°
2026-05-08 02:12 45.58886 -122.59801 35 ft 3 kts 15°
2026-05-08 02:12 45.58868 -122.59808 34 ft 3 kts 15°
2026-05-08 02:12 45.58851 -122.59815 34 ft 3 kts 20°
2026-05-08 02:13 45.58849 -122.59815 34 ft 0 kts 31°
2026-05-08 02:13 45.58858 -122.59822 34 ft 0 kts 310°
2026-05-08 02:13 45.58858 -122.59824 34 ft 0 kts 296°
2026-05-08 02:15 45.58858 -122.59827 34 ft 1 kts 294°
2026-05-08 02:15 45.58863 -122.59849 34 ft 6 kts 283°
2026-05-08 02:16 45.58875 -122.59932 33 ft 10 kts 284°
2026-05-08 02:16 45.58901 -122.60036 35 ft 11 kts 294°
2026-05-08 02:16 45.58926 -122.60104 32 ft 13 kts 299°
2026-05-08 02:16 45.58977 -122.60232 31 ft 16 kts 301°
2026-05-08 02:17 45.59067 -122.60273 34 ft 15 kts 24°
2026-05-08 02:17 45.59142 -122.60183 33 ft 15 kts 45°
2026-05-08 02:17 45.59226 -122.60060 31 ft 19 kts 45°
2026-05-08 02:17 45.59351 -122.59880 31 ft 19 kts 45°
2026-05-08 02:18 45.59402 -122.59788 29 ft 17 kts 71°
2026-05-08 02:18 45.59376 -122.59622 29 ft 18 kts 114°
2026-05-08 02:18 45.59323 -122.59480 30 ft 16 kts 119°
2026-05-08 02:18 45.59259 -122.59317 33 ft 21 kts 119°
2026-05-08 02:19 45.59180 -122.59113 38 ft 26 kts 119°
2026-05-08 02:19 45.59080 -122.58858 37 ft 33 kts 119°
2026-05-08 02:19 45.58958 -122.58543 32 ft 39 kts 119°
2026-05-08 02:19 45.58819 -122.58186 37 ft 42 kts 118°
2026-05-08 02:20 45.58685 -122.57843 38 ft 37 kts 119°
2026-05-08 02:20 45.58570 -122.57549 33 ft 30 kts 118°
2026-05-08 02:20 45.58481 -122.57317 30 ft 22 kts 119°
2026-05-08 02:20 45.58417 -122.57154 30 ft 17 kts 120°
2026-05-08 02:21 45.58358 -122.57005 32 ft 16 kts 119°
2026-05-08 02:21 45.58317 -122.56903 36 ft 7 kts 121°
2026-05-08 02:21 45.58290 -122.56839 33 ft 8 kts 119°
2026-05-08 02:21 45.58275 -122.56761 34 ft 0 kts 84°
2026-05-08 02:22 45.58277 -122.56744 34 ft 2 kts 73°
2026-05-08 02:22 45.58295 -122.56714 32 ft 9 kts 40°
2026-05-08 02:23 45.58353 -122.56688 32 ft 5 kts 344°
2026-05-08 02:23 45.58357 -122.56695 32 ft 0 kts 305°
2026-05-08 02:25 45.58390 -122.56770 33 ft 37 kts 300°
2026-05-08 02:25 45.58653 -122.57445 33 ft 115 kts 298°
2026-05-08 02:26 45.59132 -122.58704 35 ft 171 kts 298°
2026-05-08 02:26 45.59767 -122.60362 159 ft 210 kts 298°
2026-05-08 02:26 45.60411 -122.62168 1045 ft 211 kts 296°
2026-05-08 02:26 45.61051 -122.64151 1580 ft 228 kts 295°
2026-05-08 02:27 45.61711 -122.66252 2049 ft 241 kts 294°
2026-05-08 02:27 45.62435 -122.68551 2521 ft 266 kts 295°
2026-05-08 02:27 45.63230 -122.71073 3030 ft 290 kts 295°
2026-05-08 02:27 45.64092 -122.73809 3550 ft 313 kts 294°
2026-05-08 02:28 45.65003 -122.76681 4060 ft 310 kts 294°
2026-05-08 02:28 45.65868 -122.79353 4549 ft 284 kts 294°
2026-05-08 02:28 45.66717 -122.81929 5027 ft 287 kts 294°
2026-05-08 02:28 45.67572 -122.84480 5511 ft 285 kts 294°
2026-05-08 02:29 45.68444 -122.87052 5921 ft 289 kts 294°
2026-05-08 02:29 45.69327 -122.89647 5979 ft 290 kts 295°
2026-05-08 02:29 45.70205 -122.92225 5979 ft 287 kts 296°
2026-05-08 02:29 45.71499 -122.94369 6002 ft 290 kts 322°
2026-05-08 02:30 45.73303 -122.95672 6073 ft 291 kts 346°
2026-05-08 02:30 45.75344 -122.95828 6614 ft 303 kts
2026-05-08 02:30 45.77323 -122.94768 7127 ft 307 kts 26°
2026-05-08 02:30 45.79194 -122.93249 7628 ft 311 kts 29°
2026-05-08 02:31 45.81044 -122.91634 8131 ft 313 kts 29°
2026-05-08 02:31 45.82921 -122.90021 8639 ft 315 kts 28°
2026-05-08 02:31 45.84822 -122.88431 9150 ft 318 kts 28°
2026-05-08 02:31 45.86780 -122.86974 9677 ft 317 kts 13°
2026-05-08 02:32 45.88958 -122.86516 10197 ft 317 kts 359°
2026-05-08 02:32 45.91160 -122.86466 10672 ft 317 kts 358°
2026-05-08 02:32 45.93378 -122.86332 11177 ft 320 kts
2026-05-08 02:32 45.95598 -122.85973 11813 ft 324 kts
2026-05-08 02:33 45.97846 -122.85577 12436 ft 326 kts
2026-05-08 02:33 46.00114 -122.85256 13068 ft 329 kts
2026-05-08 02:33 46.02407 -122.84957 13719 ft 332 kts
2026-05-08 02:33 46.04715 -122.84631 14308 ft 335 kts
2026-05-08 02:34 46.07013 -122.84290 14884 ft 338 kts
2026-05-08 02:34 46.09394 -122.83944 15482 ft 341 kts
2026-05-08 02:34 46.11750 -122.83611 15925 ft 350 kts
2026-05-08 02:34 46.14221 -122.83261 16004 ft 362 kts
2026-05-08 02:35 46.16722 -122.82896 16014 ft 361 kts
2026-05-08 02:35 46.19218 -122.82531 16088 ft 363 kts
2026-05-08 02:35 46.21736 -122.82169 16006 ft 363 kts
2026-05-08 02:35 46.24239 -122.81809 15989 ft 361 kts
2026-05-08 02:36 46.26746 -122.81448 15995 ft 362 kts
2026-05-08 02:36 46.29252 -122.81085 15999 ft 362 kts
2026-05-08 02:36 46.31757 -122.80721 16004 ft 362 kts
2026-05-08 02:36 46.34267 -122.80358 15999 ft 362 kts
2026-05-08 02:37 46.36770 -122.79995 15996 ft 362 kts
2026-05-08 02:37 46.39279 -122.79631 15996 ft 362 kts
2026-05-08 02:37 46.41783 -122.79267 16002 ft 362 kts
2026-05-08 02:37 46.44293 -122.78901 15999 ft 362 kts
2026-05-08 02:38 46.46800 -122.78537 15992 ft 362 kts
2026-05-08 02:38 46.49310 -122.78172 15873 ft 364 kts
2026-05-08 02:38 46.51822 -122.77805 15498 ft 360 kts
2026-05-08 02:38 46.54293 -122.77442 15137 ft 355 kts
2026-05-08 02:39 46.56735 -122.77085 14776 ft 350 kts
2026-05-08 02:39 46.59142 -122.76734 14462 ft 344 kts
2026-05-08 02:39 46.61510 -122.76387 14204 ft 339 kts
2026-05-08 02:39 46.63848 -122.76045 13952 ft 337 kts
2026-05-08 02:40 46.66179 -122.75704 13669 ft 335 kts
2026-05-08 02:40 46.68492 -122.75365 13387 ft 334 kts
2026-05-08 02:40 46.70795 -122.75009 13101 ft 333 kts
2026-05-08 02:40 46.73071 -122.74402 12819 ft 332 kts
2026-05-08 02:41 46.75344 -122.73829 12540 ft 330 kts
2026-05-08 02:41 46.77620 -122.73564 12266 ft 328 kts
2026-05-08 02:41 46.79768 -122.72462 11994 ft 332 kts 27°
2026-05-08 02:41 46.81652 -122.70513 11685 ft 332 kts 38°
2026-05-08 02:42 46.83369 -122.68289 11372 ft 328 kts 41°
2026-05-08 02:42 46.85095 -122.66155 11063 ft 322 kts 33°
2026-05-08 02:42 46.86872 -122.64190 10792 ft 318 kts 38°
2026-05-08 02:42 46.88550 -122.62153 10637 ft 309 kts 38°
2026-05-08 02:43 46.90216 -122.60218 10585 ft 304 kts 36°
2026-05-08 02:43 46.91897 -122.58342 10577 ft 304 kts 36°
2026-05-08 02:43 46.93595 -122.56505 10576 ft 302 kts 28°
2026-05-08 02:43 46.95523 -122.55349 10587 ft 299 kts 15°
2026-05-08 02:44 46.97523 -122.54512 10594 ft 299 kts 13°
2026-05-08 02:44 46.99533 -122.53717 10596 ft 299 kts 14°
2026-05-08 02:44 47.01529 -122.52847 10601 ft 299 kts 15°
2026-05-08 02:44 47.03495 -122.51961 10597 ft 299 kts 15°
2026-05-08 02:45 47.05517 -122.51072 10548 ft 300 kts 14°
2026-05-08 02:45 47.07516 -122.50219 10376 ft 299 kts 12°
2026-05-08 02:45 47.09539 -122.49737 10060 ft 298 kts
2026-05-08 02:45 47.11607 -122.49358 9988 ft 294 kts
2026-05-08 02:46 47.13614 -122.48998 10014 ft 290 kts
2026-05-08 02:46 47.15581 -122.48639 9976 ft 294 kts
2026-05-08 02:46 47.17640 -122.48263 9934 ft 297 kts
2026-05-08 02:46 47.19683 -122.47968 9884 ft 294 kts
2026-05-08 02:47 47.21689 -122.47681 9848 ft 276 kts
2026-05-08 02:47 47.23559 -122.47311 9828 ft 274 kts
2026-05-08 02:47 47.25456 -122.47001 9525 ft 271 kts
2026-05-08 02:47 47.27327 -122.46737 9195 ft 269 kts
2026-05-08 02:48 47.29182 -122.46464 8867 ft 268 kts
2026-05-08 02:48 47.31032 -122.46176 8543 ft 267 kts
2026-05-08 02:48 47.32873 -122.45891 8220 ft 265 kts
2026-05-08 02:48 47.34703 -122.45611 7894 ft 264 kts
2026-05-08 02:49 47.36528 -122.45567 7570 ft 262 kts 358°
2026-05-08 02:49 47.38346 -122.45552 7277 ft 261 kts 359°
2026-05-08 02:49 47.40161 -122.45524 6943 ft 260 kts 358°
2026-05-08 02:49 47.41952 -122.45523 6486 ft 253 kts 358°
2026-05-08 02:50 47.43701 -122.45531 5992 ft 251 kts 358°
2026-05-08 02:50 47.45428 -122.45534 5538 ft 245 kts 358°
2026-05-08 02:50 47.47137 -122.45534 5148 ft 246 kts 358°
2026-05-08 02:50 47.48828 -122.45534 4781 ft 241 kts 358°
2026-05-08 02:51 47.50514 -122.45536 4397 ft 241 kts 359°
2026-05-08 02:51 47.52182 -122.45536 4047 ft 239 kts 359°
2026-05-08 02:51 47.53846 -122.45536 4000 ft 242 kts 359°
2026-05-08 02:51 47.55522 -122.45536 3999 ft 239 kts 359°
2026-05-08 02:52 47.57197 -122.45536 3999 ft 241 kts 359°
2026-05-08 02:52 47.58871 -122.45536 3999 ft 242 kts 359°
2026-05-08 02:52 47.60545 -122.45536 4002 ft 241 kts 359°
2026-05-08 02:52 47.62219 -122.45536 4000 ft 240 kts 359°
2026-05-08 02:53 47.63912 -122.45536 4000 ft 246 kts 359°
2026-05-08 02:53 47.65611 -122.45537 4003 ft 244 kts 359°
2026-05-08 02:53 47.67313 -122.45537 4006 ft 244 kts 359°
2026-05-08 02:53 47.68998 -122.45332 3997 ft 245 kts 18°
2026-05-08 02:54 47.70330 -122.43797 3999 ft 247 kts 57°
2026-05-08 02:54 47.70862 -122.41390 4009 ft 248 kts 81°
2026-05-08 02:54 47.71073 -122.38855 4005 ft 247 kts 84°
2026-05-08 02:54 47.71218 -122.36315 4005 ft 247 kts 90°
2026-05-08 02:55 47.70809 -122.33876 4006 ft 245 kts 120°
2026-05-08 02:55 47.68003 -122.31555 4012 ft 241 kts 180°
2026-05-08 02:55 47.66316 -122.31583 3987 ft 243 kts 182°
2026-05-08 02:56 47.64641 -122.31625 3846 ft 233 kts 181°
2026-05-08 02:56 47.63125 -122.31641 3685 ft 206 kts 181°
2026-05-08 02:56 47.61714 -122.31652 3447 ft 197 kts 181°
2026-05-08 02:56 47.60356 -122.31664 3188 ft 195 kts 181°
2026-05-08 02:57 47.59010 -122.31676 2928 ft 193 kts 181°
2026-05-08 02:57 47.57668 -122.31688 2669 ft 192 kts 181°
2026-05-08 02:57 47.56337 -122.31700 2413 ft 191 kts 181°
2026-05-08 02:57 47.55007 -122.31712 2154 ft 190 kts 180°
2026-05-08 02:58 47.53684 -122.31724 1894 ft 189 kts 180°
2026-05-08 02:58 47.52355 -122.31736 1638 ft 191 kts 180°
2026-05-08 02:58 47.51031 -122.31748 1378 ft 191 kts 180°
2026-05-08 02:58 47.49706 -122.31759 1107 ft 191 kts 180°
2026-05-08 02:59 47.48398 -122.31770 845 ft 182 kts 181°
2026-05-08 02:59 47.47134 -122.31780 630 ft 182 kts 181°
2026-05-08 02:59 47.45918 -122.31787 404 ft 164 kts 181°
2026-05-08 02:59 47.44990 -122.31783 389 ft 96 kts 179°
2026-05-08 03:00 47.44484 -122.31658 393 ft 59 kts 148°
2026-05-08 03:00 47.44271 -122.31454 393 ft 13 kts 130°
2026-05-08 03:00 47.44264 -122.31438 389 ft 0 kts 124°
2026-05-08 03:00 47.44260 -122.31430 390 ft 0 kts 124°